Airfield :
LOGIN :

Register | Disclaimer

   EN    FR    IT 

 










Legend :    VFR   Marginal VFR   IFR   Intensive IFR   Very Intensive IFR
Visi :
Ceiling :
>= 8 km
>= 3000ft
5 to 8 km
1000 to 3000 ft
1500m to 5 km
500 to 1000 ft
800 to 1500m
200 to 500 ft
< 800m
< 200 ft
Symbols :   Thunderstorms  Fog  Heavy snow  Heavy precipitations  Wind > 20 kt
SIGMETs :     Misc.  Thunderstorms  Icing  Turbulence  Mountain Waves  Volcanic Ashes







- Airport Elevation : 1416 ft
- IATA code : ZRH


LSZH - Zurich

CURRENT METAR :
  • 201450Z 26007KT 210V290 9999 FEW068 22/05 Q1024 NOSIG

EXPIRED METARs :
  • 201420Z 27007KT 9999 FEW065 22/06 Q1024 NOSIG
  • 201350Z 34006KT 280V020 9999 FEW065 21/07 Q1024 NOSIG
  • 201320Z 27008KT 230V300 9999 FEW065 21/07 Q1024 NOSIG
  • 201250Z VRB04KT 9999 FEW060 20/07 Q1024 NOSIG

TAF TAF LSZH
Valid from the 20 at 15:00 until the 21 at 21:00 UTC


201425Z 2015/2121 30005KT 9999 FEW060 TX21/2015Z TN07/2105Z TX22/2115Z
PROB30
TEMPO 2015/2016 31010KT
BECMG 2017/2020 CAVOK
TEMPO 2109/2115 02006KT
PROB40
TEMPO 2104/2115 9999 BKN070
ATIS : +41 43 816 2295 (DEP) +41 43 816 2294 (ARR)
No reported NOTAMs for that airfield.



MET'MAP, your aeronautical weather chart ! - Copyright ORBIFLY December 2007 - Disclaimer

ORBIFLY MET'MAP TEAM :

Programming & Development : Alexandra Zaïnal
Concept & Development : Baudouin d'Aumeries
Co-Development & Prog : Marc-Olivier Méhu
Technical & hardware support : Manuel Goepfert

Contact : metmap@orbifly.com




SOURCES & CREDITS :

   NOAA